567  
ASUS42 KKEY 290910  
RWRKEY  
 
FLORIDA REGIONAL WEATHER ROUNDUP FOR THE FLORIDA KEYS  
NATIONAL WEATHER SERVICE KEY WEST FLORIDA  
500 AM EDT SAT APR 29 2017  
   
..SOUTH FLORIDA AND THE KEYS
 
 
 
CITY SKY/WX TMP DP RH WIND PRES REMARKS
 
FORT MYERS CLEAR 74 73 97 E8 30.07R  
SW REGIONAL AP PTCLDY 73 71 93 E8 30.07S  
NAPLES CLEAR 76 73 91 E10 30.06R  
MIAMI PTCLDY 79 70 74 E16 30.08S  
WEST KENDALL MOCLDY 79 70 74 SE10 30.07S  
HOMESTEAD CLEAR 78 73 84 E14 30.06S  
MARATHON PTCLDY 80 76 87 E10G18 30.03S  
BOCA CHICA NAS PTCLDY N/A N/A N/A E18 30.02S  
KEY WEST INTL CLEAR 79 75 87 E18G25 30.03R  
   
..INTERNATIONAL WEATHER
 
 
 
CITY SKY/WX TMP DP RH WIND PRES REMARKS
 
NASSAU BAHAMAS PTCLDY 79 64 61 E12 30.08F  
CANCUN MEXICO MOCLDY 81 79 94 E17 29.88F  
COZUMEL MEXICO MOCLDY 82 77 83 SE12 29.86S HX 91  
 
ADJACENT COASTAL WATERS...  
 
STATION/POSITION TIME SKY/WX TEMP WIND PRES WAVE
 
AIR SEA DIR/SP/G HT/PER  
(UTC) (F) (DEG/KT/KT) (MB) (FT/S)  
PULASKI SHOAL LI 0900 80 120/ 20/ 22 1016.1R  
SAND KEY 0850 79 140/ 18/ 21 1017.0R  
LONG KEY 0800 80 82 120/ 16/ 18 1017.4F  
MOLASSES REEF 0800 79 79 130/ 19/ 22 1017.8F  
FOWEY ROCKS 0800 79 78 120/ 23/ 24 1018.6F  
BUOY 42097 0900 N/A 5/ 6  
 

 
 
 
CLICK HERE TO GO TO PREVIOUS BULLETINS.

The Nexlab FL Page Main Text Page